Theta_e
316 316 317 317 316 316 317 317 316 316 316 318 319 320 318 317 318 311 305 313 316 325 326 314 312 305 303 298 301 301 293 291 293 296 298 303 304 310 315 315 319 321 337 343 344
315 315 315 315 316 317 317 317 316 316 316 317 317 316 317 316 309 305 315 325 328 330 316 311 306 304 297 297 297 295 292 293 299 300 299 302 303 305 307 315 315 320 343 345 343
315 315 315 315 315 316 316 317 314 315 315 316 317 316 315 314 304 304 335 333 327 330 317 311 308 302 296 298 296 294 293 299 300 303 303 302 303 305 303 304 311 313 334 338 336
315 315 315 315 315 315 315 315 315 315 315 314 316 317 316 310 291 313 332 336 332 326 315 310 304 296 293 293 298 293 298 301 302 304 303 302 304 304 303 304 310 315 332 332 331
316 315 315 315 314 314 314 314 314 314 313 315 315 316 311 302 302 314 327 330 325 320 311 307 300 297 293 295 296 295 297 301 303 304 303 304 303 302 302 307 309 320 326 328 327
316 316 315 314 314 315 315 313 314 314 315 313 314 315 306 294 310 314 314 320 316 311 309 306 301 301 297 297 294 297 298 300 301 301 303 301 302 301 304 306 309 315 319 326 326
314 314 313 313 313 314 314 313 312 314 313 314 314 311 303 299 313 315 313 313 313 312 308 309 307 303 301 295 299 298 295 297 299 300 298 301 297 299 304 305 306 308 311 319 330
314 312 312 312 312 313 313 313 312 313 313 314 315 310 300 311 313 311 312 312 317 315 312 313 312 308 303 302 301 296 293 289 295 299 301 299 293 300 304 303 303 307 308 317 319
313 311 311 311 311 312 312 312 313 313 313 314 310 308 298 316 310 313 314 311 315 316 314 315 310 304 303 296 292 292 287 288 292 299 299 298 294 300 303 303 302 303 304 305 315
312 311 311 311 312 311 311 311 312 312 311 312 311 302 305 302 311 315 315 314 311 311 310 308 303 299 296 292 285 288 288 291 291 296 297 294 295 299 302 302 301 302 304 304 304
312 311 311 311 311 310 307 302 299 299 305 302 303 303 306 311 316 312 314 312 311 307 299 304 297 293 296 296 295 295 293 291 295 298 295 295 294 297 300 300 299 300 301 303 304
310 311 311 310 310 309 305 297 301 303 297 305 307 307 309 311 305 308 314 305 304 299 302 299 294 299 300 299 296 294 292 292 296 299 296 294 294 297 299 299 301 301 301 301 303
310 310 310 310 309 305 301 304 311 310 298 300 303 303 304 309 304 305 310 306 302 299 299 295 298 303 298 296 294 293 292 292 293 298 299 296 292 296 300 300 301 301 302 303 303
309 309 309 309 302 301 297 303 309 309 290 293 297 302 303 305 301 310 311 307 303 299 299 298 302 299 296 294 295 290 297 297 296 292 287 295 285 293 298 299 300 301 300 301 303
308 308 308 308 299 296 301 306 306 303 277 296 299 309 305 301 304 304 310 308 300 300 299 295 298 297 294 294 297 294 299 296 295 291 288 291 286 290 296 297 299 304 307 307 302
308 308 308 303 301 302 305 305 303 287 278 291 299 298 299 299 301 305 304 309 306 300 301 299 303 300 297 299 299 300 296 294 293 289 283 289 288 288 292 296 302 307 306 309 309
308 308 305 304 295 303 304 299 286 281 293 290 292 296 297 298 300 301 300 299 294 291 291 297 297 300 301 295 298 295 289 281 280 281 282 292 289 291 300 305 306 307 306 307 309
307 305 304 304 305 305 301 293 281 289 289 294 294 295 292 298 299 297 295 296 300 297 292 290 288 296 301 296 293 292 290 282 278 281 285 294 287 291 305 307 308 308 309 310 309
305 302 301 306 310 306 297 284 284 288 293 292 293 289 291 295 298 297 296 295 298 299 292 290 290 300 301 300 298 293 289 292 287 291 286 289 296 302 304 304 305 307 309 310 313
300 299 299 307 307 303 293 287 289 295 296 293 287 290 287 291 294 293 295 299 300 302 303 297 290 299 299 299 299 296 296 288 286 282 279 286 292 294 298 299 302 305 307 309 311
298 292 300 308 306 297 285 288 292 297 297 293 290 290 292 292 293 291 293 298 303 301 303 301 294 295 299 296 292 292 291 291 291 290 281 281 289 302 303 306 302 306 308 307 307
295 288 301 305 289 291 288 289 294 295 298 294 296 294 291 293 293 293 292 298 304 304 297 301 295 289 292 300 302 297 293 294 287 287 291 287 287 303 304 305 306 310 310 306 306
291 292 304 302 283 285 290 290 294 292 292 294 293 296 296 293 290 296 297 303 303 300 299 300 294 287 289 295 300 293 296 296 297 294 290 286 289 305 306 305 307 308 308 308 307
293 287 292 296 292 289 288 289 289 293 292 296 296 298 295 293 296 295 295 301 303 301 304 304 295 291 286 292 295 292 295 297 294 288 291 292 294 300 302 304 307 308 311 307 307
295 290 293 285 287 289 291 290 287 288 294 297 294 294 292 288 292 292 298 298 301 303 302 300 293 295 297 298 299 296 295 298 295 295 291 294 295 298 300 303 306 309 308 306 305
291 289 293 289 290 289 290 288 289 290 293 291 289 292 295 292 294 292 296 296 296 300 297 302 293 294 293 297 298 296 298 299 298 298 298 296 296 303 304 306 306 308 306 304 305
297 299 293 289 288 288 288 289 290 292 294 296 293 293 290 293 296 297 300 300 297 297 297 297 296 291 287 295 295 291 296 298 299 301 298 294 299 304 303 302 303 305 305 303 302
Wind_Speed
16 14 14 14 15 14 14 14 16 17 16 17 16 16 18 20 20 17 19 17 12 19 12 11 11 10 7 5 7 4 9 13 18 15 13 12 14 16 12 16 5 2 6 13 12
16 16 16 16 16 14 13 13 14 15 15 15 15 17 17 19 19 20 22 24 28 19 9 10 11 9 7 9 5 7 8 20 10 13 14 14 14 14 12 7 12 13 11 14 11
16 17 17 18 19 18 18 18 18 18 17 15 15 15 16 14 9 11 9 20 31 22 14 8 9 11 10 8 7 7 18 11 13 18 19 18 21 9 8 9 4 11 19 14 14
16 18 18 18 19 18 19 20 20 20 18 17 14 14 12 8 8 2 7 10 24 17 14 12 7 8 7 14 13 14 19 17 17 17 16 13 12 16 9 9 8 10 22 16 18
16 18 19 18 19 19 18 19 19 19 18 16 14 13 8 8 17 13 8 10 12 16 18 17 12 10 14 10 12 19 15 18 21 21 18 12 18 18 14 10 9 8 16 17 17
17 16 18 19 20 19 17 17 17 17 16 17 16 12 7 18 11 16 17 9 11 13 15 13 10 12 8 14 12 9 14 18 14 18 18 16 15 7 20 8 9 7 2 18 23
16 17 20 20 21 21 19 19 19 18 20 19 16 11 14 33 7 14 17 13 16 17 17 18 21 12 12 9 12 13 16 14 15 10 8 7 10 21 14 8 9 2 1 6 20
16 18 20 21 21 21 22 22 22 22 22 20 17 12 15 18 19 26 24 16 19 18 18 15 19 17 9 8 9 10 8 13 10 7 11 7 14 10 9 9 10 10 4 7 8
18 19 20 22 22 22 23 25 28 27 22 18 10 9 16 12 12 21 22 16 18 17 16 18 14 12 11 8 9 7 9 9 7 11 8 14 12 10 9 8 13 12 7 5 7
20 21 21 22 23 23 23 29 31 20 11 9 9 7 9 15 11 7 14 20 16 20 16 18 11 13 5 7 13 11 10 11 12 14 13 10 13 11 11 9 9 8 19 9 8
22 22 23 23 24 23 18 9 3 3 7 14 16 14 17 18 15 11 12 17 19 18 20 23 12 16 18 16 14 15 16 13 18 15 11 16 9 10 12 10 10 9 9 8 11
24 23 24 24 26 26 13 7 11 9 17 26 27 31 29 22 18 26 19 17 17 22 20 12 24 17 16 19 18 19 19 19 12 19 12 10 11 10 11 11 15 15 12 10 7
23 23 24 24 28 17 8 13 13 15 12 25 26 31 28 23 27 28 20 24 17 20 25 24 14 20 21 19 21 20 19 16 10 8 4 5 5 5 7 8 9 10 11 11 10
24 24 23 23 16 9 14 11 12 15 8 16 12 17 20 15 22 28 25 24 16 23 18 22 19 22 24 22 20 19 20 20 13 6 4 4 6 9 8 12 8 11 10 11 10
27 27 24 15 13 9 8 15 18 4 7 11 10 8 12 25 7 23 22 24 26 22 18 23 22 26 23 24 21 17 16 16 10 6 1 8 1 8 5 5 3 6 8 9 9
30 30 28 14 11 19 17 17 10 4 13 10 5 6 10 21 16 3 17 20 17 22 24 26 17 20 23 21 24 19 8 7 9 4 5 6 6 7 7 8 5 4 6 8 9
33 34 30 14 12 9 11 7 5 9 7 12 13 15 3 11 9 6 10 22 19 21 20 19 27 21 20 19 21 12 7 2 1 4 6 11 10 12 5 7 8 8 8 6 10
35 37 16 11 10 14 6 5 12 9 21 20 28 23 20 1 9 9 7 16 23 16 12 15 16 24 19 19 9 10 10 7 9 6 11 13 9 8 8 9 7 6 5 6 9
35 11 11 7 14 11 8 12 8 14 19 24 26 21 15 11 10 5 9 14 8 20 14 12 20 13 20 16 10 9 10 8 3 3 2 3 5 7 8 8 8 8 9 10 12
11 13 5 5 11 13 1 5 7 13 22 24 24 13 24 21 5 3 6 2 15 24 6 6 6 15 15 12 14 14 10 10 3 6 5 1 6 1 6 8 15 6 12 13 16
6 9 3 9 3 1 3 6 20 22 24 13 12 11 16 19 3 5 2 3 6 16 9 5 3 6 7 4 11 7 10 6 5 5 7 5 4 9 4 7 12 15 11 12 11
5 7 9 10 6 4 5 12 16 23 19 14 11 17 16 16 7 8 11 7 9 12 10 5 5 4 4 15 15 9 8 7 6 1 4 5 2 5 3 11 18 9 8 7 9
8 6 2 5 8 9 8 12 14 15 17 6 7 8 5 7 4 5 8 10 15 5 11 7 6 6 10 11 15 9 8 7 9 4 6 6 1 3 8 8 17 15 1 2 10
4 6 5 4 8 13 11 9 15 16 19 9 3 6 10 6 8 4 3 7 15 11 11 8 5 7 7 2 3 13 10 11 9 5 5 4 10 8 9 11 4 4 3 5 14
1 3 5 9 11 20 15 9 21 11 6 11 8 14 6 4 3 1 3 7 4 6 9 6 6 7 2 9 7 3 7 10 7 6 6 12 17 12 10 17 8 8 2 15 15
4 5 3 10 16 18 10 7 19 22 10 13 13 15 9 0 9 6 5 3 2 5 9 8 6 3 3 6 6 3 8 8 11 3 9 10 12 10 14 17 14 9 10 16 15
3 4 3 7 11 12 10 19 22 21 8 12 13 9 8 9 13 11 9 2 0 2 9 12 6 5 1 5 7 5 4 7 14 14 11 13 9 15 18 15 14 10 11 15 14
Wind_Direction
345 340 335 328 325 320 316 315 315 313 311 309 310 310 311 312 307 290 253 226 210 230 275 300 288 220 195 231 255 254 232 237 240 241 243 277 273 277 285 228 248 302 93 137 158
340 333 331 329 328 322 310 308 310 306 305 306 306 308 312 316 304 273 242 225 227 234 200 208 248 231 194 200 244 203 225 233 245 255 262 270 283 288 316 310 235 251 96 127 129
338 337 332 329 325 321 320 317 311 310 309 309 307 309 315 320 291 250 341 222 221 214 211 234 228 259 218 215 216 254 241 244 238 254 266 276 282 296 298 291 270 215 145 137 130
329 331 332 329 324 318 316 314 312 307 306 307 303 308 312 308 263 78 355 15 190 189 203 228 251 248 242 219 220 240 239 244 254 260 260 263 282 282 273 255 287 298 145 137 143
321 323 325 321 320 315 312 310 307 303 302 301 301 305 312 235 242 260 281 83 143 182 200 209 205 223 238 223 222 229 241 236 237 246 253 267 271 276 283 289 290 17 124 136 137
327 324 322 323 318 311 303 303 298 295 292 293 292 291 255 260 275 242 254 163 179 188 211 205 218 214 254 238 234 235 240 245 239 228 236 249 261 298 270 289 301 105 83 157 152
333 331 324 322 319 313 310 303 299 293 293 288 281 262 247 239 260 306 303 231 197 189 201 210 227 239 221 261 245 241 254 268 242 237 230 225 261 247 274 289 286 246 205 224 172
328 325 323 320 319 315 309 304 296 289 286 284 279 261 250 259 254 257 264 265 198 212 215 220 220 241 251 272 282 254 256 249 258 235 226 184 256 263 257 277 281 275 200 218 187
324 322 319 318 316 313 310 303 291 283 281 274 257 217 267 273 226 240 242 227 220 207 214 233 242 236 252 250 273 269 241 244 246 255 231 196 242 251 266 255 257 266 239 210 248
323 321 317 314 312 311 310 303 284 278 258 238 231 234 251 249 229 237 195 230 226 197 198 223 227 232 227 215 226 233 226 235 247 228 238 242 228 222 231 243 244 251 262 231 213
320 320 318 315 312 310 319 334 332 127 221 202 193 219 279 254 263 204 187 203 223 194 203 208 210 214 208 224 232 244 245 226 229 238 200 230 222 212 213 220 235 244 244 267 236
321 318 316 315 311 305 296 244 239 278 292 219 239 235 234 262 279 291 179 190 216 210 193 191 219 212 219 222 227 240 247 253 261 226 202 206 224 223 223 210 209 218 234 238 257
319 317 315 315 311 301 222 224 261 282 271 266 243 238 236 228 238 250 201 196 222 214 199 206 204 207 219 221 220 228 242 252 246 289 190 177 269 257 260 218 215 207 203 224 214
317 315 315 320 304 338 290 272 315 293 273 289 246 247 210 197 251 228 232 187 213 223 211 224 226 203 215 226 213 226 225 242 258 266 225 159 242 252 238 243 245 240 210 214 228
317 314 311 307 285 262 264 332 315 331 278 274 278 140 138 175 192 205 209 196 201 203 208 221 198 223 211 218 226 227 214 213 244 261 200 292 93 257 260 185 174 39 64 12 261
316 312 312 298 239 245 269 275 298 234 240 262 312 300 141 212 243 335 205 197 209 212 211 224 222 217 227 212 222 232 218 182 200 199 246 227 230 261 240 214 116 78 76 67 71
317 310 305 277 255 258 258 252 232 226 266 258 269 320 213 188 247 355 290 204 201 207 229 224 226 231 224 219 209 208 128 224 240 213 214 223 225 227 179 133 142 140 129 114 101
315 312 285 255 265 244 233 226 228 240 226 278 299 314 320 116 173 157 228 237 210 211 208 228 228 216 223 224 179 205 164 157 179 171 228 232 248 273 105 82 90 97 81 31 92
320 309 301 326 355 227 216 222 222 238 268 291 311 323 300 325 336 205 202 210 235 252 209 213 247 226 227 207 175 191 200 189 155 223 100 195 145 65 88 91 84 71 25 71 66
315 303 280 291 29 20 175 293 275 291 294 297 291 265 287 299 150 307 213 210 205 223 184 313 302 231 217 192 225 185 160 209 201 178 220 282 78 249 39 6 36 56 82 61 54
301 313 310 336 51 53 220 273 316 322 315 303 285 290 286 290 142 165 216 307 229 196 214 281 131 307 334 253 192 186 190 186 127 124 167 127 127 359 40 73 54 25 9 90 78
305 305 334 329 29 338 325 297 305 315 315 302 261 253 246 287 231 183 187 193 203 183 194 189 146 243 287 294 301 191 179 144 123 250 69 104 90 332 49 119 88 39 343 99 116
310 281 192 17 7 334 322 314 307 331 322 291 302 212 230 246 217 227 203 145 138 122 168 198 169 113 317 295 268 196 189 145 105 93 166 122 204 66 94 100 133 163 196 185 121
298 312 316 322 343 328 321 321 335 316 311 261 301 33 356 350 241 191 226 160 172 156 179 327 161 143 190 147 229 194 180 147 122 117 143 151 151 162 115 108 116 352 327 235 98
296 327 342 316 330 320 331 306 320 326 288 9 19 5 29 265 225 25 209 115 161 212 150 238 171 206 193 22 344 26 175 122 118 147 140 163 156 173 159 118 83 31 215 114 104
342 325 322 301 308 329 340 332 336 331 343 2 356 336 351 289 12 121 316 200 219 184 167 217 164 81 114 38 346 356 15 133 121 64 6 150 126 157 132 122 133 144 83 79 77
317 278 270 304 319 330 332 338 334 335 301 10 360 331 21 358 327 310 309 11 245 226 207 189 131 121 211 120 341 313 77 7 90 110 196 98 108 136 114 99 93 119 106 84 73